COSMOS 446

导读

COSMOS 446是苏联(CIS前身)于1971年10月13日08:00发射的航天器,隶属于苏联著名的"宇宙"(Kosmos/Cosmos)卫星系列。该系列自1962年起覆盖科学研究、军事侦察等多领域,苏联常以此命名掩盖任务属性。作为冷战时期航天活动的一员,它延续了苏联航天对近地空间探索与技术验证的传统,见证了早期航天事业的发展历程。

Basic Information
目录编号:
5549
目录名称:
COSMOS 446
国际标识:
1971-086C
轨道中心:
EARTH
卫星名称:
COSMOS 446
卫星全名:
--
卫星状态:
在轨 (已飞行20059 天)
发射日期:
1971-10-13 UTC
国别 :
俄罗斯(独联体) (CIS)
星等 :
--
This satellite is enrolled in the Space Conjunction Data Service (SCDS) and the current flight risk assessment level is: No High Risk
Orbit Information
数据来源 国际轨道数据
星历时间: 2026-09-13T00:24:12+0800
13小时前
查看轨道信息
半长轴: 7824.024km
偏心率: 0.008401
轨道倾角: 74.032°
近地点辐角 325.317°
升交点赤经 0.378°
平近点角 34.242°
近地点: 1380.157km
远地点: 1511.617km
周期: 114.790分钟
每日圈数: 12.544622
Detailed Information
使用方式:
暂无
2D Orbit Map
3D Orbit Map
Orbit Altitude Analysis Chart
Orbit Inclination Analysis Chart
Orbit Comprehensive Analysis Chart
View Comprehensive Chart
Conjunction Data List
Event ID Objects TCA Miss Dist (km) Collision Risk Probability Collision Risk Index (CRI) Action
CDM_260914-080700-554904-512724
2026-09-14T
08:07:41+0000
1.980 km
极远距离
1.965217E-6 低风险 0.41
CDM_260914-131300-554903-905726
2026-09-14T
13:13:18+0000
2.880 km
极远距离
1.353691E-6 低风险 0.38
Miss Distance Evolution Trend with All Objects
Collision Probability Evolution Trend with All Objects